Regional Weather Roundup
Issued by NWS Charleston, WV

Home | Current Version | Previous Version | Graphics & Text | Print | Product List | Glossary On
Versions: 1 2 3 4 5 6 7 8 9 10 11 12 13 14 15 16 17 18 19 20 21 22 23 24 25 26 27 28 29 30 31 32 33 34 35 36 37 38 39 40 41 42 43 44 45 46 47 48 49 50
000
ASUS41 KRLX 291610
RWRRLX
West Virginia Regional Weather Roundup
National Weather Service Charleston WV
1200 PM EDT TUE JUL 29 2014

Note: "fair" indicates few or no clouds below 12,000 feet with no
significant weather and/or obstructions to visibility.

WVZ003-291700-
Northern Panhandle of West Virginia

CITY           SKY/WX    TMP DP  RH WIND       PRES   REMARKS
WHEELING       PTSUNNY   65  49  56 VRB5      30.03S
$$

WVZ009-291700-
Northwest West Virginia

CITY           SKY/WX    TMP DP  RH WIND       PRES   REMARKS
PARKERSBURG    MOSUNNY  N/A N/A N/A NW5       30.07S
$$

WVZ006-291700-
Western West Virginia

CITY           SKY/WX    TMP DP  RH WIND       PRES   REMARKS
HUNTINGTON     CLOUDY    61  57  87 SW7       30.05R
$$

WVZ015-291700-
West Central West Virginia

CITY           SKY/WX    TMP DP  RH WIND       PRES   REMARKS
CHARLESTON     PTSUNNY   67  60  78 VRB5      30.03S
$$

WVZ031-291700-
North Central West Virginia

CITY           SKY/WX    TMP DP  RH WIND       PRES   REMARKS
CLARKSBURG     PTSUNNY   65  48  54 CALM      30.03S
MORGANTOWN     MOSUNNY   66  46  48 VRB3      30.04S
$$

WVZ035-042-045-291700-
South Central West Virginia

CITY           SKY/WX    TMP DP  RH WIND       PRES   REMARKS
BECKLEY        PTSUNNY   62  52  69 W8        30.05R
BLUEFIELD      MOSUNNY   68  53  58 W8        30.06S
LEWISBURG      CLOUDY    65  52  64 NW5       30.04R
$$

WVZ047-291700-
Northern Mountains of West Virginia

CITY           SKY/WX    TMP DP  RH WIND       PRES   REMARKS
ELKINS         MOSUNNY   63  49  60 VRB6      30.04F
$$

WVZ052-291700-
Eastern Panhandle of West Virginia

CITY           SKY/WX    TMP DP  RH WIND       PRES   REMARKS
MARTINSBURG    PTSUNNY   68  49  50 W10       29.97F
PETERSBURG     CLOUDY    67  46  47 CALM      29.99F
$$


USA.gov is the U.S. government's official web portal to all federal, state and local government web resources and services.